Regional Weather Roundup
Issued by NWS

Home | Current Version | Previous Version | Text Only | Print | Product List | Glossary On
Versions: 1 2 3 4 5 6 7 8 9 10 11 12 13 14 15 16 17 18 19 20 21 22 23 24 25 26 27 28 29 30 31 32 33 34 35 36 37 38 39 40 41 42 43 44 45 46 47 48 49 50
000
ASUS45 KBOI 300610
RWRID
WEATHER ROUNDUP FOR IDAHO
NATIONAL WEATHER SERVICE BOISE ID
1200 AM MDT TUE SEP 30 2014

NOTE: "FAIR" INDICATES FEW OR NO CLOUDS BELOW 12000 FEET
WITH NO SIGNIFICANT WEATHER AND/OR OBSTRUCTIONS TO VISIBILITY

IDZ012-014-300700-
SOUTHWEST IDAHO


CITY           SKY/WX    TMP DP  RH WIND       PRES   REMARKS
BOISE          CLOUDY    55  51  86 CALM      29.94F
CALDWELL       CLOUDY    54  45  71 S3        29.96R
MOUNTAIN HOME  DRIZZLE   53  53 100 E2        29.95S FOG
$$

IDZ016-017-300700-
SOUTHCENTRAL IDAHO


CITY           SKY/WX    TMP DP  RH WIND       PRES   REMARKS
BURLEY         LGT RAIN  50  47  89 W9        29.97S
JEROME         LGT RAIN  51  49  92 SW6       29.98S
TWIN FALLS     LGT RAIN  53  49  86 S7        29.98S
$$

IDZ019>023-300700-
SOUTHEAST IDAHO


CITY           SKY/WX    TMP DP  RH WIND       PRES   REMARKS
IDAHO FALLS    CLOUDY    50  46  86 S12       29.96S
POCATELLO      CLOUDY    51  50  96 SW9       29.97S
REXBURG        CLOUDY    48  43  82 S8        29.95S
$$

IDZ006-010-011-018-031-032-300700-
CENTRAL IDAHO MOUNTAINS


CITY           SKY/WX    TMP DP  RH WIND       PRES   REMARKS
MCCALL         CLOUDY    47  45  93 CALM      29.96S
HAILEY         DRIZZLE   43  43 100 CALM      29.99S
STANLEY          N/A     40  38  93 CALM      30.01S
SALMON         CLOUDY    52  48  87 SE3       29.90S
CHALLIS        LGT RAIN  50  47  89 N3        29.94R
$$

IDZ002-004-006-007-026-300700-
NORTHERN IDAHO


CITY           SKY/WX    TMP DP  RH WIND       PRES   REMARKS
LEWISTON       CLOUDY    61  53  75 E10       29.81S
LOWELL           N/A     56  55  97 CALM      29.87S
COEUR D`ALENE  MOCLDY    57  48  72 S9        29.77S
MULLAN PASS    CLOUDY    43  42  97 VRB5      29.88S
$$



USA.gov is the U.S. government's official web portal to all federal, state and local government web resources and services.